Flag for Austria Weather past 2 weeks in Graz, Styria, Austria

36 °F

Partly sunny.

Feels Like: 36 °F
Forecast: 41 / 55 °F
Wind: 1 mph from North

Location: Graz-Thalerhof-Flughafen

Current Time: Dec 1, 2015 at 10:32:38 AM

Latest Report: Dec 1, 2015 at 9:50 AM

Visibility: N/A

Pressure: 30.12 "Hg

Humidity: 93%

Dew point: 34 °F

Location of GrazLocation

Historic Weather in Graz — Graph


Graz temperature yesterday

Maximum temperature yesterday: 54 °F (at 1:50 PM)
Minimum temperature yesterday: 25 °F (at 6:20 AM)
Average temperature yesterday: 36 °F

Past Weeks' High & Low Weather Summary

High70 °F (Nov 16, 12:50 PM)100% (Nov 17, 12:50 AM)30.33 "Hg (Nov 17, 12:50 AM)
Low19 °F (Nov 25, 4:20 AM)35% (Nov 16, 1:20 PM)29.33 "Hg (Nov 21, 12:20 AM)
Average37 °F86%29.93 "Hg
* Reported Nov 16 9:20 AM — Dec 1 9:50 AM, Graz, Weather by CustomWeather, © 2015

Note: Actual official high and low records may vary slightly from our data, if they occured in-between our weather recording intervals... More about our weather records


Graz weather history for previous 24 hours

Time TempWeatherWind HumidityBarometerVisibility
9:50 AM
Tue, Dec 1
36 °FPartly sunny.1 mph93%30.12 "HgN/A
8:50 AM32 °FPartly sunny.2 mph93%30.12 "HgN/A
7:50 AM30 °FPartly sunny.1 mph93%30.09 "HgN/A
7:20 AM30 °FPassing clouds.2 mph100%30.09 "HgN/A
6:50 AM30 °FPassing clouds.5 mph100%30.07 "HgN/A
6:20 AM30 °FClear.2 mph100%30.07 "Hg10 mi
5:50 AM32 °FClear.2 mph100%30.07 "Hg10 mi
5:20 AM32 °FPassing clouds.3 mph100%30.07 "HgN/A
4:50 AM32 °FPassing clouds.3 mph93%30.07 "HgN/A
4:20 AM32 °FPassing clouds.2 mph100%30.07 "HgN/A
3:50 AM32 °FPassing clouds.1 mph100%30.07 "HgN/A
3:20 AM32 °FPassing clouds.3 mph93%30.07 "HgN/A
2:50 AM32 °FPassing clouds.2 mph100%30.07 "HgN/A
2:20 AM32 °FPassing clouds.6 mph100%30.04 "HgN/A
1:50 AM32 °FPassing clouds.3 mph93%30.07 "HgN/A
12:50 AM30 °FChilly.2 mph93%30.04 "Hg4 mi
11:50 PM
Mon, Nov 30
27 °FPassing clouds.5 mph93%30.07 "Hg6 mi
11:20 PM28 °FPassing clouds.3 mph100%30.07 "HgN/A
10:50 PM32 °FClear.2 mph93%30.07 "Hg10 mi
10:20 PM32 °FClear.2 mph100%30.07 "Hg10 mi
9:50 PM36 °FClear.2 mph93%30.07 "Hg10 mi
9:20 PM32 °FClear.1 mph93%30.09 "Hg10 mi
8:50 PM37 °FClear.2 mph87%30.09 "Hg10 mi
8:20 PM36 °FClear.1 mph93%30.09 "Hg10 mi
7:50 PM36 °FClear.3 mph93%30.09 "Hg10 mi
7:20 PM37 °FClear.2 mph87%30.09 "Hg10 mi
6:50 PM41 °FClear.1 mph81%30.09 "Hg10 mi
6:20 PM37 °FClear.2 mph81%30.09 "Hg10 mi
5:50 PM39 °FClear.2 mph81%30.09 "Hg10 mi
5:20 PM43 °FClear.3 mph76%30.09 "Hg10 mi
4:50 PM43 °FClear.2 mph71%30.09 "Hg10 mi
4:20 PM46 °FPassing clouds.3 mph66%30.09 "HgN/A
3:50 PM50 °FPassing clouds.7 mph58%30.09 "HgN/A
3:20 PM52 °FSunny.7 mph58%30.07 "Hg10 mi
2:50 PM52 °FSunny.9 mph58%30.07 "Hg10 mi
2:20 PM52 °FSunny.5 mph54%30.07 "Hg10 mi
1:50 PM54 °FSunny.7 mph54%30.07 "Hg10 mi
1:20 PM52 °FSunny.3 mph54%30.07 "Hg10 mi
12:50 PM48 °FPartly sunny.5 mph62%30.07 "HgN/A
12:20 PM46 °FPartly sunny.6 mph66%30.07 "HgN/A
11:50 AM46 °FPartly sunny.2 mph57%30.09 "HgN/A
11:20 AM41 °FPartly sunny.3 mph70%30.09 "HgN/A
10:50 AM41 °FPartly sunny.1 mph70%30.09 "HgN/A
10:20 AM37 °FPartly sunny.2 mph81%30.09 "HgN/A
Weather by CustomWeather, © 2015

See weather overviewHow to use our weather pages